Time,TemperatureF,DewpointF,PressureIn,WindDirection,WindDirectionDegrees,WindSpeedMPH,WindSpeedGustMPH,Humidity,HourlyPrecipIn,Conditions,Clouds,dailyrainin,SolarRadiationWatts/m^2,SoftwareType,DateUTC
2014-07-23 00:00:00,67.1,60.0,-100.00,South,170,2.9,6.3,77,0.00,,,-99.99,1.0,HOBO +U30 +Weather +,2014-07-23 06:00:00,
2014-07-23 00:05:00,67.2,59.8,-100.00,East,97,0.7,2.2,76,0.00,,,-99.99,1.0,HOBO +U30 +Weather +,2014-07-23 06:05:00,
2014-07-23 00:10:00,66.8,59.5,-100.00,East,79,0.0,1.8,77,0.00,,,-99.99,1.0,HOBO +U30 +Weather +,2014-07-23 06:10:00,
2014-07-23 00:15:00,66.7,59.6,-100.00,East,79,0.0,1.1,77,0.00,,,-99.99,1.0,HOBO +U30 +Weather +,2014-07-23 06:15:00,
2014-07-23 00:20:00,67.0,60.1,-100.00,NNE,32,2.9,5.6,78,0.00,,,-99.99,1.0,HOBO +U30 +Weather +,2014-07-23 06:20:00,
2014-07-23 00:25:00,67.5,60.5,-100.00,North,11,2.2,4.0,78,0.00,,,-99.99,1.0,HOBO +U30 +Weather +,2014-07-23 06:25:00,
2014-07-23 00:30:00,67.4,60.4,-100.00,NNE,24,1.8,2.9,78,0.00,,,-99.99,1.0,HOBO +U30 +Weather +,2014-07-23 06:30:00,
2014-07-23 00:35:00,67.1,60.1,-100.00,NNE,24,3.4,5.6,78,0.00,,,-99.99,1.0,HOBO +U30 +Weather +,2014-07-23 06:35:00,
2014-07-23 00:46:00,66.7,59.9,-100.00,NNE,15,2.9,4.5,78,0.00,,,-99.99,1.0,HOBO +U30 +Weather +,2014-07-23 06:46:00,
2014-07-23 00:50:00,65.8,60.7,-100.00,NNE,22,3.4,7.4,83,0.00,,,-99.99,1.0,HOBO +U30 +Weather +,2014-07-23 06:50:00,
2014-07-23 00:55:00,65.3,60.8,-100.00,NE,46,4.5,8.5,85,0.00,,,-99.99,1.0,HOBO +U30 +Weather +,2014-07-23 06:55:00,
2014-07-23 01:00:00,65.4,60.4,-100.00,NE,45,5.1,7.4,84,0.00,,,-99.99,1.0,HOBO +U30 +Weather +,2014-07-23 07:00:00,
2014-07-23 01:05:00,66.1,60.3,-100.00,NE,37,4.0,7.4,81,0.00,,,-99.99,1.0,HOBO +U30 +Weather +,2014-07-23 07:05:00,
2014-07-23 01:10:00,65.8,60.2,-100.00,NE,34,4.0,6.7,82,0.00,,,-99.99,1.0,HOBO +U30 +Weather +,2014-07-23 07:10:00,
2014-07-23 01:15:00,65.1,60.3,-100.00,NE,39,5.1,8.5,84,0.00,,,-99.99,1.0,HOBO +U30 +Weather +,2014-07-23 07:15:00,
2014-07-23 01:20:00,65.3,60.0,-100.00,NE,46,3.4,6.7,82,0.00,,,-99.99,1.0,HOBO +U30 +Weather +,2014-07-23 07:20:00,
2014-07-23 01:25:00,65.9,59.7,-100.00,NNE,22,3.4,7.4,80,0.00,,,-99.99,1.0,HOBO +U30 +Weather +,2014-07-23 07:25:00,
2014-07-23 01:30:00,65.5,60.1,-100.00,NE,35,4.5,7.8,82,0.00,,,-99.99,1.0,HOBO +U30 +Weather +,2014-07-23 07:30:00,
2014-07-23 01:35:00,65.1,60.2,-100.00,NE,41,4.0,7.4,84,0.00,,,-99.99,1.0,HOBO +U30 +Weather +,2014-07-23 07:35:00,
2014-07-23 01:40:00,64.7,60.3,-100.00,NE,38,5.6,8.9,85,0.00,,,-99.99,1.0,HOBO +U30 +Weather +,2014-07-23 07:40:00,
2014-07-23 01:45:00,64.5,60.5,-100.00,NE,55,4.5,7.4,86,0.00,,,-99.99,1.0,HOBO +U30 +Weather +,2014-07-23 07:45:00,
2014-07-23 01:50:00,65.1,59.9,-100.00,NNE,28,4.0,6.7,83,0.00,,,-99.99,1.0,HOBO +U30 +Weather +,2014-07-23 07:50:00,
2014-07-23 01:55:00,65.4,60.1,-100.00,NNE,15,1.8,4.5,82,0.00,,,-99.99,1.0,HOBO +U30 +Weather +,2014-07-23 07:55:00,
2014-07-23 02:00:00,65.1,60.0,-100.00,NE,44,4.5,7.8,83,0.00,,,-99.99,1.0,HOBO +U30 +Weather +,2014-07-23 08:00:00,
2014-07-23 02:05:00,65.0,60.4,-100.00,NE,44,5.1,7.4,84,0.00,,,-99.99,1.0,HOBO +U30 +Weather +,2014-07-23 08:05:00,
2014-07-23 02:10:00,64.7,60.3,-100.00,NE,45,3.4,6.3,85,0.00,,,-99.99,1.0,HOBO +U30 +Weather +,2014-07-23 08:10:00,
2014-07-23 02:15:00,65.1,60.2,-100.00,NNE,17,3.4,5.6,84,0.00,,,-99.99,1.0,HOBO +U30 +Weather +,2014-07-23 08:15:00,
2014-07-23 02:20:00,64.8,60.0,-100.00,NE,37,4.0,6.7,84,0.00,,,-99.99,1.0,HOBO +U30 +Weather +,2014-07-23 08:20:00,
2014-07-23 02:25:00,64.8,59.7,-100.00,NNE,27,2.9,5.1,83,0.00,,,-99.99,1.0,HOBO +U30 +Weather +,2014-07-23 08:25:00,
2014-07-23 02:30:00,64.3,60.5,-100.00,NE,42,4.0,8.9,87,0.00,,,-99.99,1.0,HOBO +U30 +Weather +,2014-07-23 08:30:00,
2014-07-23 02:43:00,64.2,60.4,-100.00,NE,35,7.4,10.1,87,0.00,,,-99.99,1.0,HOBO +U30 +Weather +,2014-07-23 08:43:00,
2014-07-23 02:45:00,64.0,59.9,-100.00,NNE,28,7.4,10.1,86,0.00,,,-99.99,1.0,HOBO +U30 +Weather +,2014-07-23 08:45:00,
2014-07-23 02:50:00,63.9,60.3,-100.00,NNE,25,7.4,10.7,88,0.00,,,-99.99,1.0,HOBO +U30 +Weather +,2014-07-23 08:50:00,
2014-07-23 02:55:00,63.6,60.4,-100.00,NNE,28,6.3,7.8,89,0.00,,,-99.99,1.0,HOBO +U30 +Weather +,2014-07-23 08:55:00,
2014-07-23 03:00:00,63.4,60.5,-100.00,NNE,24,5.6,8.9,89,0.00,,,-99.99,1.0,HOBO +U30 +Weather +,2014-07-23 09:00:00,
2014-07-23 03:05:00,63.4,60.4,-100.00,NE,41,5.1,7.4,90,0.00,,,-99.99,1.0,HOBO +U30 +Weather +,2014-07-23 09:05:00,
2014-07-23 03:10:00,63.4,60.3,-100.00,NNE,20,6.3,8.9,89,0.00,,,-99.99,1.0,HOBO +U30 +Weather +,2014-07-23 09:10:00,
2014-07-23 03:15:00,64.1,59.9,-100.00,North,7,5.1,8.5,86,0.00,,,-99.99,1.0,HOBO +U30 +Weather +,2014-07-23 09:15:00,
2014-07-23 03:20:00,64.0,60.2,-100.00,NNE,27,5.1,7.4,87,0.00,,,-99.99,1.0,HOBO +U30 +Weather +,2014-07-23 09:20:00,
2014-07-23 03:25:00,63.1,60.2,-100.00,NE,42,6.7,8.9,90,0.00,,,-99.99,1.0,HOBO +U30 +Weather +,2014-07-23 09:25:00,
2014-07-23 03:30:00,63.0,60.4,-100.00,NE,37,6.3,7.8,91,0.00,,,-99.99,1.0,HOBO +U30 +Weather +,2014-07-23 09:30:00,
2014-07-23 03:35:00,63.4,60.0,-100.00,NE,34,5.6,7.8,88,0.00,,,-99.99,1.0,HOBO +U30 +Weather +,2014-07-23 09:35:00,
2014-07-23 03:40:00,63.4,59.9,-100.00,NNE,29,6.3,8.5,88,0.00,,,-99.99,1.0,HOBO +U30 +Weather +,2014-07-23 09:40:00,
2014-07-23 03:45:00,63.8,60.0,-100.00,NNE,20,6.3,8.9,87,0.00,,,-99.99,1.0,HOBO +U30 +Weather +,2014-07-23 09:45:00,
2014-07-23 03:50:00,64.1,59.9,-100.00,North,10,6.3,8.5,86,0.00,,,-99.99,1.0,HOBO +U30 +Weather +,2014-07-23 09:50:00,
2014-07-23 03:55:00,64.0,60.0,-100.00,NNE,18,5.1,7.8,86,0.00,,,-99.99,1.0,HOBO +U30 +Weather +,2014-07-23 09:55:00,
2014-07-23 04:00:00,64.3,60.1,-100.00,NNE,22,6.3,9.6,85,0.00,,,-99.99,1.0,HOBO +U30 +Weather +,2014-07-23 10:00:00,
2014-07-23 04:05:00,63.8,59.9,-100.00,NE,35,5.6,8.5,87,0.00,,,-99.99,1.0,HOBO +U30 +Weather +,2014-07-23 10:05:00,
2014-07-23 04:10:00,63.6,59.8,-100.00,NNE,29,5.1,7.4,87,0.00,,,-99.99,1.0,HOBO +U30 +Weather +,2014-07-23 10:10:00,
2014-07-23 04:15:00,63.2,59.7,-100.00,NNE,29,5.1,7.4,88,0.00,,,-99.99,1.0,HOBO +U30 +Weather +,2014-07-23 10:15:00,
2014-07-23 04:20:00,64.1,60.3,-100.00,NNE,22,5.6,7.8,87,0.00,,,-99.99,1.0,HOBO +U30 +Weather +,2014-07-23 10:20:00,
2014-07-23 04:25:00,64.4,60.3,-100.00,NNE,14,6.7,8.9,86,0.00,,,-99.99,1.0,HOBO +U30 +Weather +,2014-07-23 10:25:00,
2014-07-23 04:30:00,64.7,60.4,-100.00,NNE,15,7.4,10.7,85,0.00,,,-99.99,1.0,HOBO +U30 +Weather +,2014-07-23 10:30:00,
2014-07-23 04:41:00,64.7,60.3,-100.00,North,6,7.4,11.2,85,0.00,,,-99.99,1.0,HOBO +U30 +Weather +,2014-07-23 10:41:00,
2014-07-23 04:45:00,64.5,60.2,-100.00,NNE,18,5.6,7.8,85,0.00,,,-99.99,1.0,HOBO +U30 +Weather +,2014-07-23 10:45:00,
2014-07-23 04:50:00,64.3,60.1,-100.00,North,7,5.6,7.8,86,0.00,,,-99.99,1.0,HOBO +U30 +Weather +,2014-07-23 10:50:00,
2014-07-23 04:55:00,65.7,60.7,-100.00,North,0,5.6,8.9,83,0.00,,,-99.99,1.0,HOBO +U30 +Weather +,2014-07-23 10:55:00,
2014-07-23 05:00:00,64.9,60.6,-100.00,North,0,5.6,8.5,85,0.00,,,-99.99,1.0,HOBO +U30 +Weather +,2014-07-23 11:00:00,
2014-07-23 05:05:00,64.8,60.5,-100.00,North,6,6.3,8.5,85,0.00,,,-99.99,1.0,HOBO +U30 +Weather +,2014-07-23 11:05:00,
2014-07-23 05:10:00,64.3,60.3,-100.00,North,4,4.5,8.5,86,0.00,,,-99.99,1.0,HOBO +U30 +Weather +,2014-07-23 11:10:00,
2014-07-23 05:15:00,64.0,60.3,-100.00,North,8,5.6,8.9,87,0.00,,,-99.99,1.0,HOBO +U30 +Weather +,2014-07-23 11:15:00,
2014-07-23 05:20:00,63.9,60.3,-100.00,NNE,14,5.6,8.5,87,0.00,,,-99.99,1.0,HOBO +U30 +Weather +,2014-07-23 11:20:00,
2014-07-23 05:25:00,63.7,60.2,-100.00,NNE,13,5.1,7.4,88,0.00,,,-99.99,1.0,HOBO +U30 +Weather +,2014-07-23 11:25:00,
2014-07-23 05:30:00,63.8,60.4,-100.00,North,11,5.6,8.9,88,0.00,,,-99.99,1.0,HOBO +U30 +Weather +,2014-07-23 11:30:00,
2014-07-23 05:35:00,63.6,60.3,-100.00,North,11,6.3,8.9,88,0.00,,,-99.99,2.0,HOBO +U30 +Weather +,2014-07-23 11:35:00,
2014-07-23 05:40:00,63.5,60.3,-100.00,NNE,14,5.1,6.7,89,0.00,,,-99.99,3.0,HOBO +U30 +Weather +,2014-07-23 11:40:00,
2014-07-23 05:45:00,63.6,60.3,-100.00,NNE,14,5.6,8.9,88,0.00,,,-99.99,9.0,HOBO +U30 +Weather +,2014-07-23 11:45:00,
2014-07-23 05:50:00,63.6,60.3,-100.00,North,4,2.9,5.6,88,0.00,,,-99.99,9.0,HOBO +U30 +Weather +,2014-07-23 11:50:00,
2014-07-23 05:55:00,64.2,60.5,-100.00,NNE,20,1.1,3.4,87,0.00,,,-99.99,12.0,HOBO +U30 +Weather +,2014-07-23 11:55:00,
2014-07-23 06:00:00,63.4,60.6,-100.00,ENE,66,4.5,6.7,90,0.00,,,-99.99,11.0,HOBO +U30 +Weather +,2014-07-23 12:00:00,
2014-07-23 06:05:00,63.3,60.5,-100.00,ENE,66,1.1,5.6,90,0.00,,,-99.99,14.0,HOBO +U30 +Weather +,2014-07-23 12:05:00,
2014-07-23 06:10:00,63.5,60.5,-100.00,West,278,1.1,3.4,89,0.00,,,-99.99,26.0,HOBO +U30 +Weather +,2014-07-23 12:10:00,
2014-07-23 06:15:00,63.7,60.7,-100.00,ESE,117,1.1,3.4,89,0.00,,,-99.99,37.0,HOBO +U30 +Weather +,2014-07-23 12:15:00,
2014-07-23 06:20:00,63.6,60.6,-100.00,ESE,107,1.1,4.0,89,0.00,,,-99.99,36.0,HOBO +U30 +Weather +,2014-07-23 12:20:00,
2014-07-23 06:25:00,63.9,60.4,-100.00,South,184,1.1,4.0,88,0.00,,,-99.99,34.0,HOBO +U30 +Weather +,2014-07-23 12:25:00,
2014-07-23 06:39:00,64.0,60.5,-100.00,West,281,1.8,4.0,88,0.00,,,-99.99,41.0,HOBO +U30 +Weather +,2014-07-23 12:39:00,
2014-07-23 06:40:00,63.9,60.1,-100.00,SSE,160,1.8,4.5,87,0.00,,,-99.99,67.0,HOBO +U30 +Weather +,2014-07-23 12:40:00,
2014-07-23 06:45:00,63.4,60.0,-100.00,SE,145,0.7,2.9,88,0.00,,,-99.99,43.0,HOBO +U30 +Weather +,2014-07-23 12:45:00,
2014-07-23 06:50:00,63.3,60.2,-100.00,East,97,4.0,5.6,89,0.00,,,-99.99,38.0,HOBO +U30 +Weather +,2014-07-23 12:50:00,
2014-07-23 06:55:00,63.0,59.8,-100.00,SSE,150,2.2,5.1,89,0.00,,,-99.99,46.0,HOBO +U30 +Weather +,2014-07-23 12:55:00,
2014-07-23 07:00:00,62.8,59.9,-100.00,SSW,192,3.4,6.7,89,0.00,,,-99.99,76.0,HOBO +U30 +Weather +,2014-07-23 13:00:00,
2014-07-23 07:05:00,63.0,59.7,-100.00,SW,225,6.3,10.1,89,0.00,,,-99.99,84.0,HOBO +U30 +Weather +,2014-07-23 13:05:00,
2014-07-23 07:10:00,63.0,59.8,-100.00,SSW,205,4.5,10.1,89,0.00,,,-99.99,71.0,HOBO +U30 +Weather +,2014-07-23 13:10:00,
2014-07-23 07:15:00,63.3,59.9,-100.00,SW,222,4.5,8.9,88,0.00,,,-99.99,67.0,HOBO +U30 +Weather +,2014-07-23 13:15:00,
2014-07-23 07:20:00,63.4,59.9,-100.00,WSW,253,5.6,8.9,88,0.00,,,-99.99,91.0,HOBO +U30 +Weather +,2014-07-23 13:20:00,
2014-07-23 07:25:00,63.3,60.0,-100.00,West,265,2.9,6.3,88,0.00,,,-99.99,84.0,HOBO +U30 +Weather +,2014-07-23 13:25:00,
2014-07-23 07:37:00,63.5,60.0,-100.00,WSW,258,2.2,5.1,88,0.00,,,-99.99,89.0,HOBO +U30 +Weather +,2014-07-23 13:37:00,
2014-07-23 07:40:00,64.3,60.4,-100.00,SSW,199,4.0,5.6,86,0.00,,,-99.99,196.0,HOBO +U30 +Weather +,2014-07-23 13:40:00,
2014-07-23 07:45:00,64.2,60.3,-100.00,SW,216,2.9,5.1,86,0.00,,,-99.99,132.0,HOBO +U30 +Weather +,2014-07-23 13:45:00,
2014-07-23 07:50:00,64.9,60.6,-100.00,WSW,244,2.2,5.1,85,0.00,,,-99.99,163.0,HOBO +U30 +Weather +,2014-07-23 13:50:00,
2014-07-23 07:55:00,65.4,60.6,-100.00,WSW,239,0.0,2.2,84,0.00,,,-99.99,264.0,HOBO +U30 +Weather +,2014-07-23 13:55:00,
2014-07-23 08:00:00,66.6,61.2,-100.00,SW,232,0.7,3.4,82,0.00,,,-99.99,323.0,HOBO +U30 +Weather +,2014-07-23 14:00:00,
2014-07-23 08:05:00,67.2,61.5,-100.00,South,190,1.1,4.0,81,0.00,,,-99.99,304.0,HOBO +U30 +Weather +,2014-07-23 14:05:00,
2014-07-23 08:10:00,68.1,61.6,-100.00,South,173,0.7,3.4,79,0.00,,,-99.99,227.0,HOBO +U30 +Weather +,2014-07-23 14:10:00,
2014-07-23 08:15:00,67.9,61.5,-100.00,NE,45,1.1,4.0,79,0.00,,,-99.99,356.0,HOBO +U30 +Weather +,2014-07-23 14:15:00,
2014-07-23 08:20:00,67.5,61.2,-100.00,WNW,303,1.1,5.1,80,0.00,,,-99.99,269.0,HOBO +U30 +Weather +,2014-07-23 14:20:00,
2014-07-23 08:25:00,66.9,61.0,-100.00,SSW,194,2.9,5.1,81,0.00,,,-99.99,262.0,HOBO +U30 +Weather +,2014-07-23 14:25:00,
2014-07-23 08:36:00,66.9,60.9,-100.00,SW,219,2.2,5.6,80,0.00,,,-99.99,246.0,HOBO +U30 +Weather +,2014-07-23 14:36:00,
2014-07-23 08:40:00,66.3,60.8,-100.00,SSW,194,4.5,7.8,82,0.00,,,-99.99,151.0,HOBO +U30 +Weather +,2014-07-23 14:40:00,
2014-07-23 08:45:00,66.1,60.5,-100.00,South,188,4.0,5.6,82,0.00,,,-99.99,138.0,HOBO +U30 +Weather +,2014-07-23 14:45:00,
2014-07-23 08:50:00,66.3,60.7,-100.00,SSW,192,3.4,6.3,82,0.00,,,-99.99,154.0,HOBO +U30 +Weather +,2014-07-23 14:50:00,
2014-07-23 08:55:00,66.7,60.9,-100.00,SSW,199,3.4,6.7,81,0.00,,,-99.99,237.0,HOBO +U30 +Weather +,2014-07-23 14:55:00,
2014-07-23 09:00:00,67.2,60.9,-100.00,SW,225,4.0,7.8,79,0.00,,,-99.99,171.0,HOBO +U30 +Weather +,2014-07-23 15:00:00,
2014-07-23 09:05:00,66.6,60.5,-100.00,SW,236,4.0,7.8,80,0.00,,,-99.99,201.0,HOBO +U30 +Weather +,2014-07-23 15:05:00,
2014-07-23 09:10:00,66.9,60.6,-100.00,SW,230,5.1,7.8,80,0.00,,,-99.99,346.0,HOBO +U30 +Weather +,2014-07-23 15:10:00,
2014-07-23 09:15:00,67.7,60.9,-100.00,WSW,257,4.5,7.4,78,0.00,,,-99.99,427.0,HOBO +U30 +Weather +,2014-07-23 15:15:00,
2014-07-23 09:20:00,67.4,60.6,-100.00,SW,229,5.1,10.1,78,0.00,,,-99.99,421.0,HOBO +U30 +Weather +,2014-07-23 15:20:00,
2014-07-23 09:34:00,67.7,60.7,-100.00,WSW,253,4.0,7.4,78,0.00,,,-99.99,482.0,HOBO +U30 +Weather +,2014-07-23 15:34:00,
2014-07-23 09:35:00,69.5,61.0,-100.00,WNW,303,2.9,6.3,74,0.00,,,-99.99,571.0,HOBO +U30 +Weather +,2014-07-23 15:35:00,
2014-07-23 09:40:00,71.0,61.5,-100.00,North,351,1.8,5.1,71,0.00,,,-99.99,572.0,HOBO +U30 +Weather +,2014-07-23 15:40:00,
2014-07-23 09:45:00,71.5,61.5,-100.00,NNW,333,1.1,3.4,70,0.00,,,-99.99,362.0,HOBO +U30 +Weather +,2014-07-23 15:45:00,
2014-07-23 09:50:00,72.5,61.9,-100.00,NE,34,0.7,4.0,69,0.00,,,-99.99,517.0,HOBO +U30 +Weather +,2014-07-23 15:50:00,
2014-07-23 09:55:00,71.1,61.2,-100.00,South,178,0.7,2.9,71,0.00,,,-99.99,606.0,HOBO +U30 +Weather +,2014-07-23 15:55:00,
2014-07-23 10:00:00,73.5,62.1,-100.00,SE,138,0.7,2.9,67,0.00,,,-99.99,601.0,HOBO +U30 +Weather +,2014-07-23 16:00:00,
2014-07-23 10:05:00,74.4,62.5,-100.00,ENE,73,0.0,2.2,66,0.00,,,-99.99,613.0,HOBO +U30 +Weather +,2014-07-23 16:05:00,
2014-07-23 10:10:00,74.0,61.9,-100.00,SSE,160,0.7,2.9,65,0.00,,,-99.99,618.0,HOBO +U30 +Weather +,2014-07-23 16:10:00,
2014-07-23 10:15:00,74.8,62.2,-100.00,SE,133,0.7,2.2,64,0.00,,,-99.99,627.0,HOBO +U30 +Weather +,2014-07-23 16:15:00,
2014-07-23 10:20:00,75.7,62.1,-100.00,NE,39,0.7,3.4,62,0.00,,,-99.99,636.0,HOBO +U30 +Weather +,2014-07-23 16:20:00,
2014-07-23 10:33:00,74.8,62.3,-100.00,North,355,0.7,4.0,65,0.00,,,-99.99,649.0,HOBO +U30 +Weather +,2014-07-23 16:33:00,
2014-07-23 10:35:00,74.9,62.0,-100.00,WSW,237,1.1,4.0,64,0.00,,,-99.99,668.0,HOBO +U30 +Weather +,2014-07-23 16:35:00,
2014-07-23 10:40:00,75.0,61.9,-100.00,SSW,212,1.8,6.3,63,0.00,,,-99.99,696.0,HOBO +U30 +Weather +,2014-07-23 16:40:00,
2014-07-23 10:45:00,74.8,61.6,-100.00,SSW,206,3.4,7.4,63,0.00,,,-99.99,763.0,HOBO +U30 +Weather +,2014-07-23 16:45:00,
2014-07-23 10:50:00,74.2,60.7,-100.00,WSW,237,4.0,10.1,62,0.00,,,-99.99,741.0,HOBO +U30 +Weather +,2014-07-23 16:50:00,
2014-07-23 10:55:00,75.5,61.6,-100.00,WSW,239,1.8,4.5,61,0.00,,,-99.99,731.0,HOBO +U30 +Weather +,2014-07-23 16:55:00,
2014-07-23 11:00:00,77.2,61.6,-100.00,South,181,0.7,2.2,58,0.00,,,-99.99,719.0,HOBO +U30 +Weather +,2014-07-23 17:00:00,
2014-07-23 11:05:00,76.9,60.8,-100.00,SW,222,1.1,3.4,57,0.00,,,-99.99,722.0,HOBO +U30 +Weather +,2014-07-23 17:05:00,
2014-07-23 11:10:00,76.5,60.9,-100.00,West,264,1.8,5.6,58,0.00,,,-99.99,722.0,HOBO +U30 +Weather +,2014-07-23 17:10:00,
2014-07-23 11:15:00,76.2,60.7,-100.00,WNW,284,2.2,5.1,58,0.00,,,-99.99,729.0,HOBO +U30 +Weather +,2014-07-23 17:15:00,
2014-07-23 11:20:00,77.3,60.7,-100.00,WNW,293,1.8,4.0,56,0.00,,,-99.99,736.0,HOBO +U30 +Weather +,2014-07-23 17:20:00,
2014-07-23 11:31:00,78.0,61.0,-100.00,NE,49,2.2,6.7,56,0.00,,,-99.99,741.0,HOBO +U30 +Weather +,2014-07-23 17:31:00,
2014-07-23 11:35:00,79.4,61.4,-100.00,NW,321,2.9,6.3,54,0.00,,,-99.99,768.0,HOBO +U30 +Weather +,2014-07-23 17:35:00,
2014-07-23 11:40:00,79.7,61.7,-100.00,NNW,331,1.8,6.3,54,0.00,,,-99.99,778.0,HOBO +U30 +Weather +,2014-07-23 17:40:00,
2014-07-23 11:45:00,80.1,61.6,-100.00,NNW,334,2.2,6.3,53,0.00,,,-99.99,776.0,HOBO +U30 +Weather +,2014-07-23 17:45:00,
2014-07-23 11:50:00,79.5,61.5,-100.00,NE,44,5.1,7.8,54,0.00,,,-99.99,784.0,HOBO +U30 +Weather +,2014-07-23 17:50:00,
2014-07-23 11:55:00,80.7,61.4,-100.00,NNE,15,5.1,8.5,51,0.00,,,-99.99,792.0,HOBO +U30 +Weather +,2014-07-23 17:55:00,
2014-07-23 12:00:00,79.5,60.7,-100.00,North,355,5.6,10.7,52,0.00,,,-99.99,801.0,HOBO +U30 +Weather +,2014-07-23 18:00:00,
2014-07-23 12:05:00,81.2,61.0,-100.00,North,4,4.5,8.9,50,0.00,,,-99.99,811.0,HOBO +U30 +Weather +,2014-07-23 18:05:00,
2014-07-23 12:10:00,82.3,61.6,-100.00,North,352,4.0,12.3,49,0.00,,,-99.99,827.0,HOBO +U30 +Weather +,2014-07-23 18:10:00,
2014-07-23 12:15:00,80.9,61.5,-100.00,NW,319,5.1,11.2,51,0.00,,,-99.99,809.0,HOBO +U30 +Weather +,2014-07-23 18:15:00,
2014-07-23 12:20:00,82.0,62.3,-100.00,NNW,331,2.9,7.4,51,0.00,,,-99.99,716.0,HOBO +U30 +Weather +,2014-07-23 18:20:00,
2014-07-23 12:30:00,82.3,61.8,-100.00,NW,324,3.4,7.8,50,0.00,,,-99.99,959.0,HOBO +U30 +Weather +,2014-07-23 18:30:00,
2014-07-23 12:35:00,81.7,61.3,-100.00,NNE,17,6.7,10.7,50,0.00,,,-99.99,392.0,HOBO +U30 +Weather +,2014-07-23 18:35:00,
2014-07-23 12:40:00,80.5,61.0,-100.00,NNE,21,4.5,10.1,51,0.00,,,-99.99,286.0,HOBO +U30 +Weather +,2014-07-23 18:40:00,
2014-07-23 12:45:00,81.2,61.0,-100.00,North,4,4.5,8.5,50,0.00,,,-99.99,304.0,HOBO +U30 +Weather +,2014-07-23 18:45:00,
2014-07-23 12:50:00,81.9,61.1,-100.00,NNE,13,6.3,9.6,49,0.00,,,-99.99,549.0,HOBO +U30 +Weather +,2014-07-23 18:50:00,
2014-07-23 12:55:00,82.2,60.8,-100.00,North,7,8.5,11.9,48,0.00,,,-99.99,593.0,HOBO +U30 +Weather +,2014-07-23 18:55:00,
2014-07-23 13:00:00,83.3,60.7,-100.00,NNE,18,5.6,9.6,46,0.00,,,-99.99,781.0,HOBO +U30 +Weather +,2014-07-23 19:00:00,
2014-07-23 13:05:00,82.7,60.3,-100.00,NNE,13,6.7,11.2,46,0.00,,,-99.99,621.0,HOBO +U30 +Weather +,2014-07-23 19:05:00,
2014-07-23 13:10:00,83.2,61.1,-100.00,NNE,15,4.5,8.9,47,0.00,,,-99.99,673.0,HOBO +U30 +Weather +,2014-07-23 19:10:00,
2014-07-23 13:15:00,82.0,61.0,-100.00,ENE,60,6.7,11.2,48,0.00,,,-99.99,872.0,HOBO +U30 +Weather +,2014-07-23 19:15:00,
2014-07-23 13:28:00,82.1,61.4,-100.00,NE,51,7.8,11.2,49,0.00,,,-99.99,689.0,HOBO +U30 +Weather +,2014-07-23 19:28:00,